This is the latest recevied weather packets stored in our database for station/object KD8OUK. If no packets are shown the sender has not sent any weather packets the latest 10 day(s).
| Time | Temp. | Humidity | Pressure | Rain* | Wind** | Luminosity | Snow |
|---|---|---|---|---|---|---|---|
| 1777732222 | 5° C | 74% | 1018.6 hPa | 0 mm | - | - | - |
| 1777731932 | 5° C | 77% | 1018.6 hPa | 0 mm | - | - | - |
| 1777731624 | 4.44° C | 77% | 1018.7 hPa | 0 mm | - | - | - |
| 1777731317 | 4.44° C | 78% | 1018.7 hPa | 0 mm | - | - | - |
| 1777731027 | 4.44° C | 80% | 1018.8 hPa | 0 mm | - | - | - |
| 1777730719 | 4.44° C | 83% | 1018.8 hPa | 0 mm | - | - | - |
| 1777730429 | 3.89° C | 85% | 1018.6 hPa | 0 mm | - | - | - |
| 1777730121 | 3.89° C | 85% | 1018.6 hPa | 0 mm | - | - | - |
| 1777729831 | 3.33° C | 86% | 1018.6 hPa | 0 mm | - | - | - |
| 1777729525 | 3.33° C | 89% | 1018.6 hPa | 0 mm | - | - | - |
| 1777729216 | 2.78° C | 90% | 1018.6 hPa | 0 mm | - | - | - |
| 1777728926 | 2.78° C | 92% | 1018.5 hPa | 0 mm | - | - | - |
| 1777728619 | 2.78° C | 92% | 1018.5 hPa | 0 mm | - | - | - |
| 1777728329 | 2.78° C | 92% | 1018.4 hPa | 0 mm | - | - | - |
| 1777728020 | 2.22° C | 92% | 1018.3 hPa | 0 mm | - | - | - |
| 1777727725 | 2.22° C | 90% | 1018.4 hPa | 0 mm | - | - | - |
| 1777727423 | 2.22° C | 92% | 1018.5 hPa | 0 mm | - | - | - |
| 1777727121 | 2.22° C | 91% | 1018.5 hPa | 0 mm | - | - | - |
| 1777726819 | 2.22° C | 90% | 1018.2 hPa | 0 mm | - | - | - |
| 1777726518 | 2.22° C | 90% | 1018.2 hPa | 0 mm | - | - | - |
| 1777726227 | 2.22° C | 90% | 1018.2 hPa | 0 mm | - | - | - |
| 1777725629 | 1.11° C | 95% | 1018.3 hPa | 0 mm | - | - | - |
| 1777725321 | 1.67° C | 92% | 1018.2 hPa | 0 mm | - | - | - |
| 1777725032 | 1.11° C | 93% | 1018.2 hPa | 0 mm | - | - | - |
| 1777724719 | 1.11° C | 94% | 1018 hPa | 0 mm | - | - | - |
* Rain latest hour (hover to see other rain measurements)
** Current wind speed in m/s (hover to see current wind gust speed)